[[{"header":{"parameterUnit":"m.s-1","parameterCategory":2,"la1":30.2991,"la2":30.254,"lo1":-89.0895,"lo2":-89.0444,"dy":0.0017,"dx":0.0017,"nx":28,"ny":28,"refTime":"2023-11-01T21:00:00:Z","depth":"0","parameterNumber":2,"parameterNumberName":"U-component_of_CURRENTS"},"data":[0,0,0,0,0,0,0,0,0,0,0,0,0,0,0,0,0,0,0,0,0,0,0,0,0,0,0,0,0,0,0,0,0,0,0,0,0,0,0,0,0,0,0,0,0,0,0,0,0,0,0,0,0,0,0,0,0,0,0.283,0.283,0,0.2816,0.2815,0.2815,0.2774,0.2774,0.2774,0.2773,0.2702,0.27,0.2699,0,0,0,0,0,0,0,0,0,0,0,0,0,0.2803,0.2803,0.283,0.283,0.2831,0.2816,0.2815,0.2814,0.2774,0.2774,0.2774,0.2773,0.2702,0.2701,0.2699,0,0,0,0,0,0,0,0,0,0,0,0,0,0.2798,0.2803,0.283,0.2814,0.2813,0.2816,0.2815,0.2814,0.2774,0.2774,0.2773,0.2773,0.2703,0.2701,0.2698,0.2691,0,0,0.2691,0.269,0,0,0,0,0,0,0,0,0.2799,0.2798,0.2816,0.2815,0.2814,0.2802,0.278,0.2773,0.2774,0.2782,0.2773,0.2773,0.2735,0.273,0.2719,0.2688,0.2685,0.2691,0.2689,0.2688,0.2687,0,0,0,0,0,0,0,0.2799,0.2799,0.2818,0.2816,0.2815,0.2802,0.28,0.2778,0.2755,0.2781,0.278,0.2789,0.2733,0.2722,0.2717,0.2684,0.2691,0.2688,0.2687,0.2686,0.2669,0.267,0,0,0,0,0,0,0.2816,0.2799,0.2818,0.2818,0.2813,0.2803,0.2801,0.2801,0.2756,0.2751,0.2789,0.2787,0.2726,0.272,0.2715,0.2723,0.2688,0.2686,0.2684,0.2668,0.2669,0.267,0,0,0,0,0,0,0.2815,0.2817,0.2819,0.2814,0.2814,0.2805,0.2805,0.2801,0.2794,0.2764,0.2757,0.2787,0.2726,0.2718,0.2705,0.2719,0.2685,0.2682,0.2666,0.2668,0.2669,0.2727,0,0,0,0,0,0,0.2814,0.2817,0.2815,0.2815,0.2815,0.282,0.2806,0.2801,0.2803,0.28,0.276,0.2753,0.2725,0.2709,0.2703,0.2715,0.268,0.2665,0.2667,0.2669,0.2723,0.273,0.2735,0,0,0,0,0,0.2813,0.2808,0.2814,0.2817,0.2815,0.282,0.2818,0.2806,0.2804,0.2797,0.2781,0.2754,0.2717,0.2708,0.27,0.2712,0.2664,0.2667,0.2669,0.2721,0.2729,0.2735,0,0,0,0,0,0,0.2784,0.2804,0.2811,0.2809,0.2819,0.2816,0.2811,0.2813,0.2795,0.2792,0.2762,0.2754,0.275,0.2726,0.2717,0.2715,0.2688,0.2689,0.273,0.2737,0.2743,0.2756,0.2678,0,0,0,0,0,0.2784,0.2789,0.2807,0.2806,0.2814,0.2817,0.2817,0.2816,0.2809,0.28,0.278,0.2762,0.2753,0.2741,0.2724,0.2718,0.2732,0.2723,0.273,0.2735,0.2742,0.279,0.2801,0.2678,0.2677,0.2677,0,0,0.2774,0.2786,0.2789,0.2802,0.2807,0.2822,0.2813,0.2819,0.2831,0.2796,0.2794,0.278,0.2758,0.2755,0.2751,0.2735,0.2778,0.2738,0.2742,0.2746,0.2793,0.2805,0.2816,0.2679,0.2679,0.2679,0,0,0.2765,0.277,0.2777,0.2791,0.2812,0.2819,0.2828,0.2835,0.2834,0.2841,0.2824,0.2824,0.28,0.2792,0.2785,0.2815,0.2811,0.2809,0.2844,0.2891,0.2901,0.2911,0.2952,0.2964,0.2809,0.2809,0.2809,0,0.275,0.2764,0.2778,0.2795,0.2808,0.2825,0.2839,0.2847,0.2849,0.286,0.2847,0.2848,0.2822,0.2837,0.2844,0.2829,0.2856,0.2817,0.29,0.291,0.2919,0.2958,0.2971,0.2812,0.2811,0.2811,0.2811,0,0.2757,0.2768,0.2773,0.2805,0.282,0.2831,0.286,0.2875,0.2885,0.29,0.2921,0.29,0.2904,0.2897,0.2875,0.2923,0.2923,0.2906,0.2884,0.2935,0.2972,0.2985,0.2816,0.2815,0.2814,0.2813,0,0,0.2708,0.2767,0.2764,0.2789,0.2825,0.284,0.2873,0.2908,0.2939,0.295,0.2986,0.2978,0.2983,0.2976,0.2957,0.2987,0.3066,0.2975,0.2976,0.3019,0.3179,0.3136,0.3146,0.3073,0.3075,0.3077,0.3183,0,0.2702,0.274,0.2767,0.28,0.2823,0.2859,0.2889,0.2929,0.2959,0.2998,0.3012,0.3031,0.301,0.3012,0.3047,0.3054,0.3103,0.3039,0.312,0.3122,0.3081,0.3159,0.2945,0.3019,0.3196,0.3198,0.32,0,0.2686,0.272,0.2752,0.2813,0.2825,0.2846,0.2907,0.294,0.3009,0.3036,0.308,0.3093,0.3134,0.3107,0.3186,0.3151,0.318,0.319,0.3194,0.3141,0.3103,0.2994,0.3035,0.2963,0.3219,0.3218,0.3216,0,0.2645,0.27,0.2727,0.2746,0.282,0.2839,0.2878,0.2946,0.2983,0.3063,0.3109,0.316,0.319,0.3239,0.3271,0.3238,0.3366,0.3319,0.3315,0.3312,0.3138,0.3115,0.3117,0.3402,0.3402,0.3402,0.3401,0,0.2618,0.2637,0.2711,0.2728,0.276,0.2822,0.2863,0.2917,0.2995,0.3049,0.3126,0.3175,0.323,0.3302,0.3319,0.337,0.3417,0.3345,0.3346,0.3152,0.313,0.3063,0.3042,0.3406,0.3405,0.3404,0.3403,0,0.2561,0.2609,0.2645,0.2722,0.274,0.2764,0.2843,0.2884,0.2977,0.3054,0.3083,0.3204,0.3299,0.3368,0.3444,0.3429,0.337,0.3484,0.3252,0.3224,0.3106,0.3096,0.3024,0.2931,0.3477,0.3476,0.3476,0,0.2532,0.2549,0.2624,0.2644,0.2671,0.2719,0.2753,0.2849,0.2899,0.3061,0.3095,0.3229,0.3309,0.3434,0.3409,0.3457,0.3379,0.3297,0.3184,0.3096,0.3086,0.299,0.2909,0.298,0.2975,0.2972,0.2969,0,0.2481,0.2509,0.2548,0.2586,0.2617,0.266,0.272,0.2755,0.288,0.2949,0.3057,0.3138,0.3271,0.321,0.3291,0.3283,0.3103,0.3226,0.3185,0.275,0.2594,0.2503,0.2926,0.2938,0.2941,0.2943,0.2945,0.2946,0.2431,0.244,0.2489,0.251,0.2553,0.2583,0.2569,0.2655,0.2705,0.2768,0.2919,0.296,0.2996,0.3057,0.3054,0.2888,0.2928,0.2755,0.2769,0.2698,0.2535,0.2903,0.2886,0.2888,0.2891,0.2893,0.2895,0,0.2348,0.2374,0.2409,0.2426,0.2424,0.2476,0.2523,0.2485,0.2484,0.2589,0.2638,0.2636,0.2593,0.2623,0.2524,0.2431,0.23,0.2369,0.2158,0.2118,0.2477,0.2381,0.219,0.219,0.219,0.219,0.219,0.219,0.2309,0.2299,0.2314,0.2272,0.2282,0.222,0.2208,0.219,0.2222,0.2192,0.2168,0.224,0.2356,0.2309,0.2184,0.212,0.1974,0.185,0.1936,0.2165,0.22,0.2234,0.2138,0.1899,0.1899,0.1402,0.1399,0.1396]},{"header":{"parameterUnit":"m.s-1","parameterCategory":2,"la1":30.2991,"la2":30.254,"lo1":-89.0895,"lo2":-89.0444,"dy":0.0017,"dx":0.0017,"nx":28,"ny":28,"refTime":"2023-11-01T21:00:00:Z","depth":"0","parameterNumber":3,"parameterNumberName":"V-component_of_CURRENTS"},"data":[0,0,0,0,0,0,0,0,0,0,0,0,0,0,0,0,0,0,0,0,0,0,0,0,0,0,0,0,0,0,0,0,0,0,0,0,0,0,0,0,0,0,0,0,0,0,0,0,0,0,0,0,0,0,0,0,0,0,-0.0552,-0.0552,0,-0.0576,-0.0576,-0.0576,-0.0569,-0.0568,-0.0568,-0.0568,-0.0555,-0.0555,-0.0554,0,0,0,0,0,0,0,0,0,0,0,0,0,-0.0482,-0.0483,-0.0552,-0.0552,-0.0553,-0.0576,-0.0576,-0.0576,-0.0569,-0.0568,-0.0568,-0.0568,-0.0555,-0.0555,-0.0554,0,0,0,0,0,0,0,0,0,0,0,0,0,-0.0506,-0.0483,-0.0552,-0.0555,-0.0556,-0.0576,-0.0576,-0.0576,-0.0569,-0.0568,-0.0568,-0.0568,-0.0555,-0.0555,-0.0554,-0.0557,0,0,-0.0553,-0.0553,0,0,0,0,0,0,0,0,-0.0505,-0.0508,-0.0554,-0.0555,-0.0556,-0.0573,-0.0547,-0.0569,-0.0569,-0.056,-0.0568,-0.0568,-0.056,-0.0559,-0.0559,-0.0557,-0.0556,-0.0553,-0.0553,-0.0553,-0.0553,0,0,0,0,0,0,0,-0.0503,-0.0507,-0.0557,-0.0555,-0.0556,-0.055,-0.0553,-0.0551,-0.0557,-0.056,-0.0561,-0.057,-0.056,-0.056,-0.0559,-0.0556,-0.0553,-0.0553,-0.0553,-0.0553,-0.0541,-0.0541,0,0,0,0,0,0,-0.051,-0.0506,-0.0557,-0.0559,-0.0534,-0.0552,-0.0555,-0.0564,-0.0558,-0.0558,-0.057,-0.057,-0.056,-0.0559,-0.0558,-0.054,-0.0553,-0.0553,-0.0553,-0.0541,-0.0541,-0.0541,0,0,0,0,0,0,-0.0508,-0.0514,-0.0556,-0.0536,-0.0541,-0.0554,-0.0564,-0.0565,-0.0564,-0.0567,-0.0565,-0.0569,-0.056,-0.0559,-0.0551,-0.0541,-0.0553,-0.0552,-0.0542,-0.0541,-0.0541,-0.0518,0,0,0,0,0,0,-0.0506,-0.0513,-0.0514,-0.0536,-0.0543,-0.0559,-0.0565,-0.0566,-0.0572,-0.0571,-0.0565,-0.0563,-0.056,-0.0552,-0.0551,-0.054,-0.0552,-0.0542,-0.0541,-0.0541,-0.0519,-0.0517,-0.0515,0,0,0,0,0,-0.0503,-0.05,-0.0514,-0.052,-0.0547,-0.0559,-0.056,-0.0566,-0.0572,-0.0565,-0.0564,-0.0564,-0.055,-0.0551,-0.055,-0.0539,-0.0542,-0.0542,-0.0541,-0.0519,-0.0517,-0.0515,0,0,0,0,0,0,-0.0461,-0.05,-0.0516,-0.0523,-0.054,-0.0559,-0.0553,-0.0567,-0.0562,-0.056,-0.0561,-0.056,-0.055,-0.0551,-0.0553,-0.0537,-0.0546,-0.0546,-0.053,-0.0527,-0.0526,-0.051,-0.0552,0,0,0,0,0,-0.0458,-0.0469,-0.0504,-0.0507,-0.0515,-0.0537,-0.0542,-0.0552,-0.0558,-0.0556,-0.0555,-0.0553,-0.0549,-0.0543,-0.0541,-0.0531,-0.0532,-0.0525,-0.0523,-0.0521,-0.0508,-0.0517,-0.0514,-0.054,-0.054,-0.054,0,0,-0.0447,-0.0466,-0.0475,-0.05,-0.0511,-0.0512,-0.0537,-0.0544,-0.054,-0.0555,-0.0539,-0.0548,-0.0547,-0.0535,-0.053,-0.0532,-0.0514,-0.0521,-0.0519,-0.0507,-0.0516,-0.0514,-0.0511,-0.054,-0.054,-0.054,0,0,-0.0418,-0.0443,-0.044,-0.0453,-0.0475,-0.0491,-0.0494,-0.0517,-0.0519,-0.0519,-0.0526,-0.0528,-0.0523,-0.0517,-0.0515,-0.0503,-0.0508,-0.0506,-0.0478,-0.0487,-0.0485,-0.0483,-0.0475,-0.0473,-0.0501,-0.0501,-0.0501,0,-0.0396,-0.0403,-0.0438,-0.0432,-0.0436,-0.0479,-0.0469,-0.0479,-0.0495,-0.0494,-0.0508,-0.0505,-0.0511,-0.049,-0.0488,-0.0497,-0.05,-0.0485,-0.0484,-0.0482,-0.048,-0.0473,-0.0471,-0.05,-0.05,-0.0501,-0.0501,0,-0.0365,-0.037,-0.0365,-0.0377,-0.0383,-0.0383,-0.0411,-0.0416,-0.0435,-0.0448,-0.0443,-0.0457,-0.0452,-0.0462,-0.0471,-0.0459,-0.0464,-0.0484,-0.0487,-0.0476,-0.047,-0.0468,-0.0499,-0.0499,-0.0499,-0.05,0,0,-0.0305,-0.034,-0.0332,-0.0331,-0.0355,-0.0354,-0.0353,-0.0361,-0.0347,-0.0379,-0.0356,-0.0376,-0.0394,-0.0392,-0.0409,-0.042,-0.0419,-0.0445,-0.0446,-0.0433,-0.0426,-0.0411,-0.0408,-0.0443,-0.0443,-0.0443,-0.0424,0,-0.0263,-0.0248,-0.0273,-0.0251,-0.0248,-0.0283,-0.0271,-0.0286,-0.0299,-0.0289,-0.0323,-0.0312,-0.0364,-0.0357,-0.0379,-0.0401,-0.0413,-0.0421,-0.0442,-0.0442,-0.0427,-0.0405,-0.037,-0.0349,-0.0422,-0.0421,-0.0421,0,-0.0212,-0.0211,-0.0189,-0.0195,-0.0193,-0.0181,-0.017,-0.0167,-0.0177,-0.0189,-0.0202,-0.0227,-0.0238,-0.029,-0.0328,-0.0332,-0.0375,-0.0405,-0.0406,-0.0396,-0.0423,-0.0373,-0.0342,-0.0454,-0.0418,-0.0418,-0.0419,0,-0.015,-0.0145,-0.0126,-0.0128,-0.0141,-0.0125,-0.0126,-0.013,-0.0109,-0.0119,-0.0101,-0.0139,-0.0135,-0.0202,-0.0269,-0.0299,-0.0308,-0.0358,-0.0386,-0.0385,-0.0359,-0.0356,-0.0432,-0.0392,-0.0392,-0.0392,-0.0392,0,-0.0099,-0.0077,-0.0093,-0.0083,-0.0037,-0.0065,-0.0014,-0.0026,-0.0012,0.0038,-0.0038,-0.0,-0.0116,-0.0138,-0.0225,-0.0279,-0.0275,-0.0365,-0.0376,-0.0349,-0.0346,-0.0445,-0.0522,-0.0391,-0.0391,-0.0392,-0.0392,0,-0.0037,-0.0054,-0.0025,-0.0023,-0.0011,0.0025,0.0058,0.0094,0.0089,0.0157,0.016,0.0117,0.0088,-0.0014,-0.0101,-0.02,-0.0322,-0.0294,-0.0244,-0.0251,-0.0399,-0.0476,-0.055,-0.0598,-0.0326,-0.0325,-0.0325,0,-0.0007,0.001,0.0033,0.0062,0.0069,0.0114,0.0149,0.0148,0.0197,0.0244,0.0293,0.0274,0.0295,0.0169,0.0003,-0.0125,-0.0269,-0.0219,-0.0283,-0.0387,-0.0481,-0.0543,-0.0584,-0.0237,-0.0235,-0.0234,-0.0234,0,0.0059,0.0066,0.0088,0.0144,0.0188,0.0238,0.0293,0.0349,0.0376,0.0449,0.0538,0.0561,0.044,0.0323,0.0115,0.0004,-0.0294,-0.0205,-0.0329,-0.0423,-0.0479,-0.0536,-0.0266,-0.0226,-0.0226,-0.0227,-0.0227,-0.0228,0.0123,0.0151,0.0177,0.024,0.0291,0.0366,0.0427,0.0503,0.0614,0.0737,0.0741,0.0811,0.0589,0.0323,0.015,-0.0181,-0.0223,-0.031,-0.0392,-0.0444,-0.0499,-0.0201,-0.017,-0.0171,-0.0171,-0.0171,-0.0172,0,0.0201,0.0219,0.0271,0.0341,0.0413,0.0418,0.0526,0.0601,0.0759,0.088,0.0981,0.0937,0.0678,0.0362,-0.008,-0.0329,-0.0434,-0.0482,-0.0575,-0.0609,-0.0346,-0.0351,-0.0338,-0.0338,-0.0338,-0.0338,-0.0338,-0.0338,0.0238,0.0296,0.0313,0.044,0.0492,0.0593,0.066,0.0779,0.0882,0.1047,0.1108,0.1122,0.0879,0.0114,-0.0436,-0.0567,-0.0755,-0.0782,-0.0901,-0.0741,-0.0732,-0.0723,-0.0746,-0.0817,-0.0817,-0.1116,-0.1119,-0.1121]}],[{"header":{"parameterUnit":"m.s-1","parameterCategory":2,"la1":30.2991,"la2":30.254,"lo1":-89.0895,"lo2":-89.0444,"dy":0.0017,"dx":0.0017,"nx":28,"ny":28,"refTime":"2023-11-01T21:00:00:Z","depth":"2","parameterNumber":2,"parameterNumberName":"U-component_of_CURRENTS"},"data":[0,0,0,0,0,0,0,0,0,0,0,0,0,0,0,0,0,0,0,0,0,0,0,0,0,0,0,0,0,0,0,0,0,0,0,0,0,0,0,0,0,0,0,0,0,0,0,0,0,0,0,0,0,0,0,0,0,0,0.2327,0.2328,0,0.2363,0.2363,0.2363,0.2372,0.2372,0.2372,0.2373,0.2363,0.2363,0.2362,0,0,0,0,0,0,0,0,0,0,0,0,0,0.2296,0.2295,0.2327,0.2328,0.2329,0.2363,0.2363,0.2363,0.2372,0.2372,0.2373,0.2373,0.2364,0.2363,0.2362,0,0,0,0,0,0,0,0,0,0,0,0,0,0.2312,0.2295,0.2327,0.2343,0.2345,0.2363,0.2363,0.2363,0.2371,0.2372,0.2373,0.2373,0.2364,0.2363,0.2362,0.2344,0,0,0.2359,0.2359,0,0,0,0,0,0,0,0,0.2311,0.2312,0.2339,0.2342,0.2345,0.237,0.2349,0.2357,0.2371,0.2354,0.2373,0.2374,0.2365,0.2364,0.2361,0.2344,0.2344,0.2359,0.2359,0.2358,0.2358,0,0,0,0,0,0,0,0.2309,0.2311,0.2334,0.2341,0.2344,0.2359,0.2361,0.235,0.235,0.2356,0.2358,0.2373,0.2366,0.2361,0.236,0.2343,0.2359,0.2358,0.2358,0.2357,0.2368,0.2369,0,0,0,0,0,0,0.2317,0.2309,0.2333,0.2336,0.2337,0.2359,0.2361,0.2355,0.2351,0.2353,0.2373,0.2373,0.2363,0.2362,0.236,0.2393,0.2358,0.2357,0.2357,0.2367,0.2368,0.2369,0,0,0,0,0,0,0.2315,0.2317,0.2332,0.233,0.2334,0.236,0.2353,0.2356,0.236,0.2366,0.2366,0.2375,0.2363,0.2361,0.236,0.239,0.2357,0.2356,0.2366,0.2368,0.2369,0.2423,0,0,0,0,0,0,0.2314,0.2316,0.2325,0.233,0.2335,0.234,0.2353,0.2356,0.2371,0.2372,0.2368,0.2367,0.2364,0.2362,0.2359,0.2388,0.2355,0.2365,0.2367,0.2368,0.242,0.2426,0.2431,0,0,0,0,0,0.2312,0.2322,0.2324,0.2329,0.2341,0.234,0.2342,0.2359,0.2371,0.2365,0.2372,0.2368,0.2371,0.2361,0.2358,0.2388,0.2364,0.2366,0.2368,0.2417,0.2425,0.2431,0,0,0,0,0,0,0.2311,0.2325,0.2327,0.234,0.2339,0.2344,0.2363,0.2361,0.2361,0.2378,0.2367,0.2366,0.2386,0.237,0.2359,0.2396,0.2371,0.2373,0.241,0.2416,0.2422,0.2444,0.2355,0,0,0,0,0,0.2316,0.2318,0.233,0.2331,0.2346,0.2351,0.236,0.2367,0.237,0.2372,0.2377,0.2384,0.239,0.2388,0.2395,0.2397,0.2407,0.2418,0.2423,0.2428,0.2444,0.248,0.2491,0.2376,0.2375,0.2375,0,0,0.2308,0.2322,0.232,0.2331,0.2343,0.2355,0.2356,0.2375,0.2386,0.2371,0.2399,0.2406,0.2396,0.2417,0.2423,0.2405,0.2465,0.243,0.2434,0.2449,0.2484,0.2495,0.2505,0.2377,0.2377,0.2376,0,0,0.2308,0.2317,0.2331,0.2336,0.2366,0.2369,0.2374,0.2394,0.241,0.2422,0.2433,0.2455,0.2449,0.2464,0.2463,0.2496,0.2499,0.2499,0.2536,0.2571,0.2581,0.259,0.2616,0.2627,0.2493,0.2493,0.2493,0,0.231,0.2319,0.2331,0.2352,0.2368,0.2374,0.2393,0.2402,0.2418,0.2444,0.244,0.2482,0.2477,0.2507,0.2527,0.2512,0.2528,0.2512,0.258,0.2589,0.2597,0.2622,0.2633,0.2496,0.2496,0.2495,0.2495,0,0.2317,0.2333,0.2344,0.2367,0.2382,0.2394,0.242,0.2449,0.2472,0.2486,0.2538,0.2541,0.2567,0.2571,0.2557,0.2618,0.261,0.259,0.2566,0.2613,0.2635,0.2646,0.25,0.2499,0.2498,0.2498,0,0,0.2292,0.2342,0.2344,0.2361,0.2395,0.2401,0.2448,0.2485,0.252,0.2551,0.26,0.2625,0.2647,0.2649,0.2648,0.2675,0.2747,0.2663,0.2663,0.2694,0.2828,0.275,0.2754,0.2743,0.2745,0.2747,0.2819,0,0.2294,0.2332,0.236,0.2381,0.2404,0.2441,0.247,0.2511,0.2551,0.26,0.2637,0.2675,0.2667,0.2692,0.2723,0.2746,0.278,0.273,0.2774,0.2775,0.2705,0.2765,0.2525,0.2563,0.2829,0.2831,0.2833,0,0.2294,0.232,0.2354,0.24,0.2416,0.2434,0.2504,0.2535,0.2611,0.2653,0.2716,0.2737,0.2801,0.2778,0.2856,0.2827,0.2843,0.2851,0.2854,0.2772,0.2718,0.2559,0.2573,0.2851,0.2849,0.2848,0.2847,0,0.2259,0.2314,0.234,0.235,0.2404,0.2445,0.2485,0.256,0.261,0.2703,0.275,0.2813,0.2865,0.2898,0.2931,0.2903,0.3006,0.296,0.2906,0.29,0.27,0.2673,0.3023,0.3023,0.3023,0.3023,0.3023,0,0.2236,0.2251,0.233,0.233,0.2378,0.2434,0.2493,0.2557,0.2651,0.2702,0.2779,0.2831,0.2903,0.2961,0.2967,0.2981,0.3041,0.2935,0.2922,0.271,0.2684,0.2932,0.292,0.3026,0.3025,0.3024,0.3024,0,0.2187,0.2223,0.2255,0.2328,0.2359,0.2399,0.2504,0.2543,0.2647,0.2727,0.2765,0.2882,0.2949,0.3001,0.3065,0.3029,0.3043,0.3032,0.2779,0.2734,0.29,0.289,0.2967,0.2965,0.2964,0.2962,0.2961,0,0.2159,0.2179,0.2254,0.2275,0.2312,0.2383,0.2425,0.2536,0.2581,0.2736,0.2761,0.2883,0.2906,0.2985,0.2966,0.2968,0.3033,0.2742,0.2637,0.292,0.2899,0.2892,0.2885,0.2394,0.2388,0.2384,0.238,0,0.2121,0.2157,0.218,0.2227,0.227,0.2321,0.2395,0.2424,0.2541,0.2607,0.2675,0.2715,0.2804,0.2694,0.2735,0.27,0.2716,0.2645,0.3023,0.2443,0.2384,0.2362,0.2373,0.2338,0.2342,0.2346,0.2348,0.2349,0.2089,0.2104,0.2134,0.2168,0.2214,0.2233,0.2226,0.2283,0.2321,0.2357,0.2473,0.2449,0.2486,0.2404,0.2344,0.2323,0.2503,0.2369,0.2382,0.24,0.2318,0.2259,0.2175,0.2178,0.218,0.2183,0.2185,0,0.2034,0.2053,0.2078,0.2084,0.2079,0.2147,0.2174,0.2115,0.2083,0.2144,0.2145,0.1964,0.1902,0.1971,0.1869,0.1871,0.1839,0.1791,0.1719,0.1762,0.1801,0.1686,0.1376,0.1374,0.1371,0.1369,0,0,0.1999,0.1973,0.1975,0.1924,0.195,0.1898,0.1881,0.1819,0.1811,0.1718,0.1694,0.1777,0.1887,0.1587,0.156,0.1451,0.159,0.1393,0.2044,0.2002,0.2036,0.2142,0.2016,0,0,0,0,0]},{"header":{"parameterUnit":"m.s-1","parameterCategory":2,"la1":30.2991,"la2":30.254,"lo1":-89.0895,"lo2":-89.0444,"dy":0.0017,"dx":0.0017,"nx":28,"ny":28,"refTime":"2023-11-01T21:00:00:Z","depth":"2","parameterNumber":3,"parameterNumberName":"V-component_of_CURRENTS"},"data":[0,0,0,0,0,0,0,0,0,0,0,0,0,0,0,0,0,0,0,0,0,0,0,0,0,0,0,0,0,0,0,0,0,0,0,0,0,0,0,0,0,0,0,0,0,0,0,0,0,0,0,0,0,0,0,0,0,0,0.008,0.0079,0,0.0016,0.0015,0.0015,-0.0033,-0.0034,-0.0034,-0.0035,-0.0075,-0.0076,-0.0076,0,0,0,0,0,0,0,0,0,0,0,0,0,0.0118,0.0118,0.008,0.0079,0.0078,0.0016,0.0015,0.0015,-0.0033,-0.0034,-0.0035,-0.0035,-0.0075,-0.0076,-0.0076,0,0,0,0,0,0,0,0,0,0,0,0,0,0.0084,0.0118,0.008,0.0046,0.0042,0.0016,0.0015,0.0014,-0.0033,-0.0034,-0.0035,-0.0036,-0.0075,-0.0076,-0.0076,-0.0065,0,0,-0.0079,-0.0079,0,0,0,0,0,0,0,0,0.0086,0.0083,0.0052,0.0048,0.0044,-0.0003,0.0014,-0.0011,-0.0033,-0.0003,-0.0035,-0.0036,-0.0049,-0.0052,-0.0061,-0.0066,-0.0068,-0.0079,-0.0079,-0.008,-0.008,0,0,0,0,0,0,0,0.0088,0.0085,0.0056,0.0051,0.0046,0.0019,0.0014,0.0009,-0.0019,-0.0006,-0.001,-0.0019,-0.0051,-0.006,-0.0062,-0.0069,-0.0079,-0.008,-0.008,-0.008,-0.0086,-0.0086,0,0,0,0,0,0,0.0097,0.0088,0.0058,0.0054,0.0062,0.0019,0.0013,0.0014,-0.002,-0.0026,-0.0018,-0.0021,-0.0058,-0.0061,-0.0063,-0.0066,-0.008,-0.0081,-0.0081,-0.0087,-0.0086,-0.0086,0,0,0,0,0,0,0.0098,0.0095,0.0061,0.0067,0.0061,0.0019,0.0021,0.0013,0.0001,-0.0029,-0.0035,-0.0024,-0.0059,-0.0062,-0.0064,-0.0068,-0.0081,-0.0082,-0.0087,-0.0086,-0.0086,-0.0062,0,0,0,0,0,0,0.01,0.0096,0.0093,0.0069,0.0061,0.0055,0.0021,0.0013,-0.0004,-0.0008,-0.0036,-0.0041,-0.006,-0.0063,-0.0065,-0.0069,-0.0082,-0.0087,-0.0087,-0.0086,-0.0064,-0.0061,-0.0059,0,0,0,0,0,0.0101,0.0104,0.0094,0.0089,0.0061,0.0056,0.0051,0.0018,-0.0003,0.0002,-0.0021,-0.004,-0.0061,-0.0062,-0.0065,-0.007,-0.0088,-0.0087,-0.0086,-0.0065,-0.0062,-0.0059,0,0,0,0,0,0,0.012,0.0099,0.0087,0.0083,0.0075,0.0048,0.0039,0.0022,0.0007,-0.0007,-0.0029,-0.0034,-0.0043,-0.0052,-0.0053,-0.0069,-0.008,-0.0079,-0.0062,-0.006,-0.0058,-0.0048,-0.0083,0,0,0,0,0,0.0124,0.012,0.0102,0.0101,0.0096,0.007,0.0059,0.0038,0.0022,0.0013,-0.0009,-0.003,-0.004,-0.0046,-0.006,-0.0059,-0.0067,-0.0065,-0.0063,-0.0061,-0.0054,-0.0062,-0.006,-0.0083,-0.0083,-0.0083,0,0,0.0136,0.0118,0.0118,0.0104,0.009,0.0096,0.0062,0.0047,0.0048,0.0013,0.0002,-0.0024,-0.0038,-0.0047,-0.0051,-0.0054,-0.0059,-0.006,-0.0058,-0.0052,-0.0061,-0.0059,-0.0057,-0.0083,-0.0083,-0.0083,0,0,0.0153,0.0139,0.0141,0.0137,0.0113,0.0104,0.0105,0.0077,0.006,0.0055,0.0021,-0.0001,-0.0013,-0.0033,-0.0039,-0.0027,-0.0049,-0.0037,-0.0015,-0.0023,-0.0021,-0.002,-0.0029,-0.0029,-0.0033,-0.0033,-0.0033,0,0.0163,0.0165,0.0143,0.0144,0.0144,0.0116,0.0127,0.0115,0.0087,0.0077,0.0057,0.0021,-0.0004,-0.0007,-0.0015,-0.0023,-0.003,-0.0026,-0.002,-0.0019,-0.0018,-0.0028,-0.0027,-0.0032,-0.0032,-0.0032,-0.0032,0,0.0186,0.0186,0.0189,0.0187,0.0187,0.0191,0.0177,0.0168,0.0143,0.0123,0.0102,0.0065,0.0044,0.0027,0.0008,-0.0,-0.0009,-0.0019,-0.0027,-0.0014,-0.0025,-0.0025,-0.003,-0.0031,-0.0031,-0.0031,0,0,0.0218,0.0208,0.021,0.0218,0.0208,0.0218,0.022,0.0219,0.0229,0.0181,0.0185,0.0138,0.0099,0.0089,0.0052,0.0037,0.0024,0.0011,0.001,0.0003,0.0007,-0.0007,-0.0008,0.0014,0.0014,0.0015,-0.0005,0,0.0244,0.026,0.0246,0.0279,0.0293,0.0275,0.0296,0.0285,0.0268,0.0263,0.0204,0.0193,0.0131,0.0117,0.0088,0.0045,0.0025,0.003,-0.0005,-0.0006,-0.0019,-0.0008,0.001,-0.0006,-0.0005,-0.0005,-0.0005,0,0.0276,0.028,0.031,0.0331,0.0338,0.0356,0.0382,0.039,0.0372,0.0356,0.0316,0.0271,0.0226,0.0178,0.0108,0.0114,0.0059,0.0024,0.0022,0.0003,-0.0019,-0.0019,-0.0007,-0.0006,-0.0006,-0.0006,-0.0006,0,0.032,0.0331,0.0358,0.0366,0.0385,0.0397,0.041,0.0412,0.0426,0.0407,0.0416,0.0348,0.0323,0.0249,0.0148,0.0131,0.0081,0.0053,-0.001,-0.0011,-0.0005,-0.0006,0.0008,0.0008,0.0008,0.0008,0.0008,0,0.0364,0.0387,0.0381,0.0402,0.0449,0.044,0.0488,0.0493,0.0498,0.054,0.0459,0.0478,0.0339,0.0284,0.0185,0.0091,0.0108,-0.0001,-0.0015,0.0003,0.0003,-0.0005,-0.0006,0.0007,0.0008,0.0008,0.0008,0,0.0414,0.0412,0.0444,0.0459,0.0471,0.0503,0.0537,0.0577,0.0576,0.0628,0.0624,0.0567,0.0506,0.0372,0.0259,0.0151,0.006,0.0021,0.0047,0.0036,-0.0038,-0.0038,-0.0048,-0.0049,-0.005,-0.005,-0.005,0,0.0441,0.0459,0.0486,0.0516,0.0524,0.0562,0.0606,0.0616,0.0662,0.0702,0.0741,0.068,0.0666,0.0479,0.0288,0.012,0.0083,0.001,-0.0027,-0.0031,-0.0043,-0.0042,-0.0041,-0.0011,-0.0011,-0.0011,-0.0011,0,0.0493,0.0497,0.0525,0.0578,0.0623,0.0677,0.0733,0.078,0.0821,0.0869,0.0931,0.0916,0.074,0.0557,0.03,0.0187,0.0034,0.0004,0.0008,-0.0001,0.0003,-0.0009,-0.0009,-0.0011,-0.0011,-0.0011,-0.0011,-0.0011,0.0531,0.0557,0.0593,0.0644,0.0701,0.0784,0.084,0.0912,0.0996,0.1064,0.1063,0.1035,0.0827,0.0491,0.0284,0.0047,0.0057,-0.0042,-0.0041,-0.004,-0.0034,-0.0031,-0.005,-0.005,-0.005,-0.0051,-0.0051,0,0.0582,0.0608,0.0658,0.0725,0.0791,0.0811,0.0924,0.0979,0.1088,0.1133,0.1164,0.098,0.0774,0.0529,0.0181,-0.0017,-0.0031,-0.0086,-0.0066,-0.0063,-0.0062,-0.0058,-0.008,-0.0081,-0.0081,-0.0082,0,0,0.061,0.0669,0.0684,0.0788,0.0832,0.0928,0.0992,0.1079,0.1123,0.116,0.1129,0.1086,0.0815,0.0556,0.0296,0.0095,0.0056,0.0059,0.0106,0.0162,0.0165,-0.001,0.0003,0,0,0,0,0]}],[{"header":{"parameterUnit":"m.s-1","parameterCategory":2,"la1":30.2991,"la2":30.254,"lo1":-89.0895,"lo2":-89.0444,"dy":0.0017,"dx":0.0017,"nx":28,"ny":28,"refTime":"2023-11-01T21:00:00:Z","depth":"4","parameterNumber":2,"parameterNumberName":"U-component_of_CURRENTS"},"data":[0,0,0,0,0,0,0,0,0,0,0,0,0,0,0,0,0,0,0,0,0,0,0,0,0,0,0,0,0,0,0,0,0,0,0,0,0,0,0,0,0,0,0,0,0,0,0,0,0,0,0,0,0,0,0,0,0,0,0.1171,0.1172,0,0.1246,0.1247,0.1248,0.131,0.1311,0.1312,0.1312,0.1382,0.1383,0.1384,0,0,0,0,0,0,0,0,0,0,0,0,0,0.1119,0.1119,0.1171,0.1172,0.1173,0.1246,0.1247,0.1248,0.131,0.1311,0.1312,0.1313,0.1381,0.1382,0.1384,0,0,0,0,0,0,0,0,0,0,0,0,0,0.116,0.1119,0.1171,0.1215,0.1219,0.1246,0.1247,0.1248,0.131,0.1311,0.1312,0.1313,0.1381,0.1382,0.1384,0.1368,0,0,0.1389,0.1389,0,0,0,0,0,0,0,0,0.1158,0.1162,0.1207,0.1212,0.1217,0.1272,0.1254,0.1289,0.1309,0.1273,0.1312,0.1314,0.1345,0.1349,0.1358,0.1371,0.1374,0.1389,0.139,0.139,0.1391,0,0,0,0,0,0,0,0.1155,0.1159,0.1199,0.1208,0.1214,0.1243,0.125,0.1261,0.1299,0.1276,0.1282,0.1293,0.1347,0.1356,0.136,0.1375,0.1389,0.139,0.1391,0.1392,0.1475,0.1476,0,0,0,0,0,0,0.1146,0.1156,0.1197,0.1201,0.1192,0.1243,0.1251,0.1251,0.1299,0.1309,0.1292,0.1295,0.1353,0.1358,0.1363,0.1438,0.139,0.1392,0.1393,0.1473,0.1475,0.1476,0,0,0,0,0,0,0.1144,0.1148,0.1194,0.1183,0.1191,0.1243,0.1243,0.1252,0.129,0.1311,0.132,0.1324,0.1354,0.136,0.1397,0.1438,0.1393,0.1394,0.1472,0.1474,0.1476,0.153,0,0,0,0,0,0,0.1142,0.1147,0.1164,0.1182,0.1191,0.1225,0.1242,0.1253,0.1294,0.1301,0.1341,0.1347,0.1355,0.1394,0.1398,0.1439,0.1395,0.147,0.1473,0.1475,0.1527,0.1534,0.1539,0,0,0,0,0,0.114,0.1151,0.1164,0.117,0.1206,0.1226,0.1233,0.1273,0.1295,0.1312,0.1342,0.1348,0.1413,0.1396,0.14,0.1443,0.1469,0.1472,0.1475,0.1524,0.1532,0.1539,0,0,0,0,0,0,0.1139,0.1159,0.1174,0.1192,0.1216,0.1237,0.1266,0.1285,0.1322,0.1342,0.1356,0.1364,0.1417,0.1414,0.1396,0.1473,0.1445,0.1449,0.1481,0.1488,0.1495,0.1494,0.1397,0,0,0,0,0,0.1144,0.1162,0.1179,0.12,0.1212,0.1242,0.1264,0.1289,0.1316,0.1336,0.1364,0.1396,0.1426,0.1445,0.1469,0.15,0.1501,0.1533,0.1539,0.1544,0.1547,0.1578,0.1587,0.1486,0.1486,0.1486,0,0,0.1144,0.1166,0.1174,0.1203,0.1226,0.1247,0.1259,0.1299,0.1326,0.1336,0.1393,0.1422,0.144,0.1487,0.151,0.1493,0.1575,0.1548,0.1553,0.1552,0.1582,0.1591,0.16,0.1488,0.1487,0.1487,0,0,0.1156,0.1178,0.1196,0.1215,0.126,0.1276,0.129,0.1327,0.1359,0.1402,0.1428,0.1475,0.1514,0.1541,0.1556,0.1606,0.161,0.1625,0.1656,0.1686,0.1695,0.1702,0.1719,0.1727,0.1625,0.1625,0.1625,0,0.1167,0.1184,0.1206,0.123,0.1252,0.1287,0.1309,0.1339,0.1389,0.142,0.143,0.1519,0.1539,0.1595,0.1622,0.1623,0.1637,0.1626,0.1695,0.1702,0.1709,0.1724,0.1732,0.1628,0.1627,0.1627,0.1627,0,0.1181,0.1206,0.122,0.1259,0.1284,0.1312,0.1346,0.1389,0.1432,0.1466,0.1544,0.1576,0.1628,0.165,0.1653,0.1721,0.1714,0.1702,0.1674,0.1722,0.1735,0.1743,0.1632,0.1631,0.163,0.1629,0,0,0.117,0.1221,0.1227,0.1249,0.1304,0.132,0.1374,0.1425,0.1469,0.1533,0.159,0.1658,0.1692,0.1711,0.1733,0.1763,0.1827,0.1761,0.1761,0.1776,0.1895,0.1781,0.1779,0.1834,0.1836,0.1837,0.1885,0,0.1179,0.1217,0.1246,0.1285,0.1302,0.1352,0.1392,0.1451,0.1507,0.1572,0.1632,0.1699,0.1709,0.1752,0.1785,0.1824,0.1851,0.1814,0.1847,0.1847,0.174,0.1785,0.1843,0.1891,0.1893,0.1894,0.1895,0,0.1176,0.1204,0.1242,0.1295,0.1308,0.1347,0.1423,0.1469,0.1562,0.1609,0.169,0.1737,0.1818,0.1808,0.1893,0.1875,0.1891,0.1907,0.1909,0.1788,0.1748,0.1833,0.191,0.1908,0.1907,0.1906,0.1906,0,0.1139,0.1197,0.123,0.1248,0.1315,0.1358,0.1408,0.1494,0.1539,0.1652,0.17,0.1791,0.1855,0.1895,0.1946,0.193,0.202,0.1993,0.1901,0.1893,0.1956,0.1948,0.2037,0.2037,0.2037,0.2037,0.2037,0,0.1119,0.1145,0.1223,0.1237,0.1288,0.1349,0.1419,0.1481,0.1573,0.163,0.1728,0.1777,0.1884,0.1947,0.1966,0.1964,0.2039,0.1912,0.19,0.1978,0.1971,0.1962,0.1953,0.2039,0.2038,0.2038,0.2037,0,0.1066,0.1118,0.1161,0.1243,0.1271,0.1318,0.1418,0.1459,0.1562,0.164,0.1683,0.1798,0.188,0.1958,0.2033,0.1983,0.1994,0.197,0.2059,0.2051,0.1838,0.1831,0.1858,0.1854,0.1851,0.1848,0.1846,0,0.104,0.1055,0.1151,0.1182,0.1229,0.1304,0.1343,0.1447,0.1494,0.1631,0.1657,0.1779,0.1846,0.1857,0.1944,0.1973,0.1952,0.1937,0.1872,0.1835,0.1821,0.1819,0.1816,0.1842,0.1841,0.184,0.1839,0,0.0981,0.1033,0.107,0.1134,0.1191,0.1229,0.1305,0.1324,0.1444,0.1551,0.1594,0.1636,0.1723,0.1781,0.1832,0.1843,0.1934,0.1904,0.191,0.1849,0.1816,0.1805,0.1806,0.1829,0.183,0.1831,0.1832,0,0.0952,0.0965,0.1023,0.1076,0.1133,0.1137,0.1185,0.1235,0.1287,0.1445,0.1457,0.1581,0.1701,0.1714,0.1753,0.1769,0.1733,0.1662,0.1679,0.1692,0.1617,0.155,0.1476,0,0,0,0,0,0.0914,0.0916,0.095,0.0996,0.1045,0.1072,0.1145,0.1197,0.132,0.1312,0.1379,0.1449,0.1505,0.1567,0.1552,0.1683,0.1743,0.1656,0.167,0.1771,0.1783,0.1712,0,0,0,0,0,0,0.089,0.0918,0.0922,0.0912,0.0926,0.0955,0.0994,0.107,0.1078,0.1214,0.1257,0.136,0.1445,0.1507,0.1526,0.1547,0.1524,0.1741,0.1737,0.1764,0.1775,0.1785,0.1716,0,0,0,0,0]},{"header":{"parameterUnit":"m.s-1","parameterCategory":2,"la1":30.2991,"la2":30.254,"lo1":-89.0895,"lo2":-89.0444,"dy":0.0017,"dx":0.0017,"nx":28,"ny":28,"refTime":"2023-11-01T21:00:00:Z","depth":"4","parameterNumber":3,"parameterNumberName":"V-component_of_CURRENTS"},"data":[0,0,0,0,0,0,0,0,0,0,0,0,0,0,0,0,0,0,0,0,0,0,0,0,0,0,0,0,0,0,0,0,0,0,0,0,0,0,0,0,0,0,0,0,0,0,0,0,0,0,0,0,0,0,0,0,0,0,0.0296,0.0296,0,0.0263,0.0262,0.0262,0.024,0.024,0.024,0.024,0.0223,0.0223,0.0222,0,0,0,0,0,0,0,0,0,0,0,0,0,0.0299,0.0299,0.0296,0.0296,0.0295,0.0263,0.0262,0.0262,0.024,0.024,0.024,0.024,0.0223,0.0223,0.0222,0,0,0,0,0,0,0,0,0,0,0,0,0,0.0285,0.0299,0.0296,0.0281,0.0279,0.0263,0.0262,0.0262,0.024,0.024,0.024,0.024,0.0223,0.0223,0.0222,0.0222,0,0,0.0221,0.0221,0,0,0,0,0,0,0,0,0.0286,0.0285,0.0283,0.0282,0.028,0.0256,0.0257,0.0249,0.024,0.0255,0.024,0.024,0.0236,0.0234,0.0228,0.0221,0.0221,0.0221,0.022,0.022,0.022,0,0,0,0,0,0,0,0.0287,0.0286,0.0282,0.0283,0.0281,0.0261,0.0259,0.0255,0.0247,0.0253,0.0252,0.0249,0.0235,0.0228,0.0227,0.0221,0.0221,0.022,0.022,0.022,0.0217,0.0217,0,0,0,0,0,0,0.0294,0.0287,0.0284,0.0282,0.0283,0.0262,0.0259,0.0263,0.0246,0.0243,0.0249,0.0248,0.0229,0.0228,0.0227,0.0235,0.022,0.022,0.0219,0.0216,0.0217,0.0217,0,0,0,0,0,0,0.0294,0.0294,0.0285,0.0283,0.0281,0.0262,0.0266,0.0263,0.0258,0.0243,0.024,0.0248,0.0229,0.0227,0.023,0.0234,0.0219,0.0219,0.0216,0.0216,0.0217,0.0245,0,0,0,0,0,0,0.0295,0.0295,0.0299,0.0284,0.0281,0.0281,0.0266,0.0262,0.0256,0.0255,0.0241,0.0239,0.0229,0.0231,0.023,0.0233,0.0219,0.0216,0.0216,0.0217,0.0244,0.0247,0.0249,0,0,0,0,0,0.0295,0.0305,0.03,0.0299,0.0289,0.0281,0.0278,0.0263,0.0257,0.0258,0.0251,0.024,0.0232,0.0231,0.0229,0.0232,0.0216,0.0216,0.0217,0.0243,0.0246,0.0249,0,0,0,0,0,0,0.0307,0.0303,0.0297,0.0305,0.0296,0.0278,0.0278,0.0267,0.0261,0.0261,0.0247,0.0244,0.0246,0.0237,0.0236,0.0232,0.0221,0.0221,0.0241,0.0244,0.0246,0.0256,0.0218,0,0,0,0,0,0.0312,0.0319,0.0309,0.0313,0.0313,0.0296,0.0291,0.0281,0.0273,0.027,0.0261,0.0252,0.0246,0.0244,0.0238,0.0239,0.0222,0.0238,0.0241,0.0243,0.025,0.0229,0.0231,0.0219,0.0219,0.0219,0,0,0.0321,0.0315,0.0321,0.0316,0.0309,0.0312,0.0293,0.0289,0.0293,0.027,0.0276,0.0262,0.0249,0.0249,0.0249,0.0243,0.0235,0.0244,0.0245,0.0251,0.023,0.0231,0.0232,0.0219,0.0219,0.0219,0,0,0.0333,0.0335,0.0343,0.0341,0.0332,0.0323,0.0325,0.0312,0.031,0.0313,0.0295,0.0286,0.028,0.0269,0.0263,0.0275,0.0248,0.0269,0.0289,0.027,0.027,0.0271,0.0241,0.0239,0.027,0.027,0.027,0,0.0341,0.0351,0.0343,0.0349,0.0353,0.0333,0.0344,0.0339,0.0327,0.033,0.0321,0.0305,0.0291,0.0288,0.0289,0.0281,0.0261,0.028,0.0273,0.0273,0.0273,0.0242,0.0239,0.0271,0.0271,0.0271,0.0271,0,0.0357,0.0368,0.0374,0.0378,0.0381,0.0387,0.0382,0.0383,0.0378,0.037,0.0369,0.0346,0.0336,0.0325,0.0312,0.0303,0.0285,0.0278,0.0266,0.0276,0.0243,0.0239,0.0273,0.0273,0.0272,0.0272,0,0,0.0371,0.0384,0.0388,0.0401,0.04,0.0406,0.0417,0.0422,0.0434,0.0416,0.0426,0.0404,0.0385,0.0377,0.0351,0.033,0.0305,0.0305,0.0304,0.0277,0.0252,0.0228,0.0221,0.0295,0.0294,0.0294,0.0225,0,0.0387,0.0411,0.0411,0.044,0.0457,0.0452,0.0468,0.047,0.0467,0.047,0.0442,0.0442,0.0407,0.0401,0.0374,0.0325,0.0299,0.0324,0.0246,0.0243,0.0222,0.0218,0.0294,0.0222,0.0221,0.0221,0.022,0,0.0405,0.0419,0.0453,0.0483,0.0491,0.0508,0.0534,0.0543,0.0541,0.0539,0.0523,0.0497,0.0464,0.0436,0.0356,0.0372,0.0317,0.0275,0.0271,0.0239,0.0213,0.0212,0.0214,0.0214,0.0215,0.0215,0.0216,0,0.0423,0.0452,0.0484,0.0494,0.052,0.0542,0.0558,0.0568,0.0587,0.0582,0.0588,0.0541,0.0522,0.045,0.0359,0.0357,0.0266,0.0253,0.0178,0.0175,0.0205,0.0205,0.02,0.02,0.02,0.02,0.02,0,0.0441,0.0468,0.0501,0.0519,0.0568,0.0576,0.0623,0.0631,0.0644,0.0668,0.0627,0.0623,0.0526,0.046,0.0372,0.0261,0.0274,0.018,0.0158,0.0217,0.0219,0.0201,0.0202,0.0198,0.0198,0.0199,0.0199,0,0.0456,0.0475,0.0516,0.0557,0.0579,0.0616,0.067,0.0698,0.0707,0.0734,0.0735,0.0683,0.0595,0.0487,0.0364,0.0283,0.0179,0.0138,0.0203,0.0185,0.0095,0.0099,0.0045,0.0044,0.0042,0.0041,0.0041,0,0.0464,0.0488,0.0549,0.0582,0.0607,0.0663,0.0703,0.0731,0.0759,0.0767,0.0778,0.0708,0.0657,0.0464,0.0347,0.0173,0.0148,0.0089,0.0094,0.0097,0.0081,0.0086,0.0091,0.0039,0.0039,0.0038,0.0038,0,0.0481,0.0507,0.0541,0.0608,0.0661,0.0719,0.0776,0.08,0.0827,0.0837,0.0806,0.071,0.0606,0.0456,0.0321,0.0198,0.0124,0.0076,0.0077,0.0082,0.0089,0.0075,0.0081,0.0034,0.0034,0.0035,0.0035,0,0.0496,0.0524,0.0571,0.0628,0.0695,0.0754,0.0785,0.0814,0.0839,0.0844,0.0829,0.0722,0.0661,0.0469,0.0346,0.0219,0.0183,0.0138,0.0135,0.0138,0.0184,0.0207,0.0169,0,0,0,0,0,0.051,0.0539,0.0589,0.0648,0.0711,0.0753,0.0824,0.0846,0.0874,0.0854,0.0842,0.0744,0.0556,0.0479,0.0347,0.0318,0.016,0.0157,0.0106,0.0012,0.0016,0.0052,0,0,0,0,0,0,0.0518,0.0567,0.0584,0.0652,0.0693,0.0766,0.0813,0.0835,0.0823,0.083,0.0734,0.0695,0.0515,0.0626,0.0337,0.03,0.0246,0.0075,0.0072,0.0009,0.0013,0.0017,0.0055,0,0,0,0,0]}]]